Flag for Norway Weather past 2 weeks in Stavern, Norway

Now
54 °F

Sprinkles. Partly sunny.


Feels Like: 49 °F
Forecast: 48 / 56 °F
Wind: 14 mph from North

Location: Torp

Current Time: Sep 21, 2014 at 6:55:42 PM

Latest Report: Sep 21, 2014 at 6:20 PM


Visibility: N/A

Pressure: 29.80 "Hg

Humidity: 77%

Dew point: 46 °F

Location of StavernLocation

Historic Weather in Stavern — Graph

°F

Stavern temperature yesterday

Maximum temperature yesterday: 64 °F (at 1:50 PM)
Minimum temperature yesterday: 41 °F (at 7:20 AM)
Average temperature yesterday: 54 °F

Past Weeks' High & Low Weather Summary

 TemperatureHumidityPressure
High66 °F (Sep 11, 12:50 PM)100% (Sep 7, 4:20 AM)30.48 "Hg (Sep 7, 4:20 AM)
Low41 °F (Sep 20, 7:20 AM)46% (Sep 13, 4:50 PM)29.77 "Hg (Sep 9, 1:20 AM)
Average56 °F84%30.15 "Hg
* Reported Sep 6 5:20 PM — Sep 21 5:20 PM, Stavern, Weather by CustomWeather, © 2014

Note: Actual official high and low records may vary slightly from our data, if they occured in-between our weather recording intervals... More about our weather records

Advertising

Stavern weather history for previous 24 hours

 ConditionsComfort  
Time TempWeatherWind HumidityBarometerVisibility
5:20 PM
Sep 21
57 °FScattered showers. Scattered clouds.9 mph67%29.77 "HgN/A
4:50 PM59 °FScattered showers. Scattered clouds.9 mph63%29.77 "HgN/A
4:20 PM59 °FSprinkles. Scattered clouds.12 mph63%29.77 "HgN/A
3:50 PM61 °FScattered clouds.10 mph59%29.80 "HgN/A
3:20 PM61 °FSunny.12 mph59%29.80 "Hg10 mi
2:50 PM61 °FSunny.12 mph63%29.80 "Hg10 mi
2:20 PM61 °FScattered clouds.15 mph59%29.80 "HgN/A
1:50 PM61 °FScattered clouds.16 mph55%29.80 "HgN/A
1:20 PM59 °FPassing clouds.18 mph63%29.80 "HgN/A
12:50 PM59 °FPassing clouds.15 mph63%29.80 "HgN/A
12:20 PM57 °FPassing clouds.18 mph67%29.80 "HgN/A
11:50 AM57 °FPassing clouds.17 mph72%29.80 "HgN/A
11:20 AM57 °FScattered clouds.20 mph72%29.80 "HgN/A
10:50 AM55 °FPassing clouds.15 mph77%29.80 "HgN/A
10:20 AM54 °FScattered clouds.15 mph88%29.80 "HgN/A
9:50 AM54 °FScattered clouds.14 mph88%29.77 "HgN/A
9:20 AM54 °FScattered clouds.15 mph88%29.77 "HgN/A
8:50 AM52 °FScattered clouds.9 mph94%29.77 "HgN/A
8:20 AM52 °FScattered clouds.8 mph100%29.77 "HgN/A
7:50 AM52 °FPassing clouds.7 mph94%29.77 "HgN/A
7:20 AM52 °FLight rain. Passing clouds.6 mph100%29.77 "Hg5 mi
6:50 AM52 °FPassing clouds.6 mph100%29.77 "Hg5 mi
6:20 AM52 °FPartly cloudy.6 mph100%29.77 "Hg5 mi
5:50 AM54 °FLight rain. Overcast.5 mph94%29.77 "Hg5 mi
5:20 AM54 °FRain. Partly cloudy.7 mph94%29.77 "Hg3 mi
4:50 AM54 °FRain. Low clouds.8 mph94%29.77 "Hg3 mi
4:20 AM54 °FPassing clouds.5 mph94%29.77 "Hg4 mi
3:50 AM54 °FFog.3 mph94%29.80 "Hg2 mi
3:20 AM54 °FPassing clouds.2 mph94%29.80 "Hg4 mi
2:50 AM54 °FPassing clouds.1 mph94%29.80 "Hg4 mi
2:20 AM55 °FLight rain. Passing clouds.3 mph88%29.83 "Hg5 mi
1:50 AM55 °FDrizzle. Overcast.1 mph88%29.80 "HgN/A
1:20 AM55 °FOvercast.3 mph82%29.80 "HgN/A
12:50 AM55 °FOvercast.3 mph82%29.80 "HgN/A
12:20 AM57 °FOvercast.7 mph77%29.83 "HgN/A
11:50 PM
Sep 20
55 °FPartly cloudy.7 mph82%29.83 "HgN/A
11:20 PM55 °FClear.6 mph88%29.83 "Hg10 mi
10:20 PM57 °FClear.7 mph82%29.83 "Hg10 mi
9:50 PM57 °FClear.8 mph82%29.86 "Hg10 mi
9:20 PM57 °FClear.9 mph77%29.86 "Hg10 mi
8:50 PM57 °FClear.9 mph77%29.86 "Hg10 mi
8:20 PM57 °FSunny.9 mph77%29.86 "Hg10 mi
7:50 PM59 °FSunny.9 mph72%29.86 "Hg10 mi
Weather by CustomWeather, © 2014

See weather overviewHow to use our weather pages